Location: Long Island Community Building
(39.9491°N, 99.5338°W)
Time: 19:36:52
(UTC+00:00)

Cosmos 1346 Rocket - Pass Details

Date: 06 December 2019
Orbit: 524 x 555 km, 81.2° (Epoch: 22 January)

Event Time Altitude Azimuth Distance (km) Brightness Sun altitude
Rises 12:34:53 0° 178° (S) 2,644 6.6 -13.2°
Reaches altitude 10° 12:37:02 10° 174° (S) 1,758 5.7 -12.8°
Maximum altitude 12:40:49 56° 96° (E) 628 3.5 -12.1°
Drops below altitude 10° 12:44:38 10° 18° (NNE) 1,772 5.4 -11.4°
Sets 12:46:49 0° 14° (NNE) 2,667 6.3 -11.0°
